Regional Weather Roundup
Issued by NWS

Home | Current Version | Previous Version | Graphics & Text | Print | Product List | Glossary On
Versions: 1 2 3 4 5 6 7 8 9 10 11 12 13 14 15 16 17 18 19 20 21 22 23 24 25 26 27 28 29 30 31 32 33 34 35 36 37 38 39 40 41 42 43 44 45 46 47 48 49 50
000
ASUS45 KBOU 291407
RWRCO

WEATHER ROUNDUP FOR COLORADO
NATIONAL WEATHER SERVICE DENVER/BOULDER CO
800 AM MDT FRI MAY 29 2015

NOTE: "FAIR" INDICATES FEW OR NO CLOUDS BELOW 12000 FEET WITH NO
SIGNIFICANT WEATHER AND/OR OBSTRUCTIONS TO VISIBILITY.

COZ001>005-013-030-031-291500-
...NORTHWEST COLORADO...

CITY           SKY/WX    TMP DP  RH WIND       PRES   REMARKS
CRAIG          MOSUNNY   46  43  89 W5        30.28S
HAYDEN         MOSUNNY   45  37  76 E6        30.29R
MEEKER         MOSUNNY   44  37  76 CALM      30.29S
MOUNT WERNER   NOT AVBL
STEAMBOAT SPGS CLOUDY    40  37  88 SE3       30.30R
WALDEN         CLOUDY    39  34  81 CALM      30.31R
$$

COZ006>008-011-291500-
...WEST CENTRAL VALLEYS...

CITY           SKY/WX    TMP DP  RH WIND       PRES   REMARKS
GRAND JUNCTION SUNNY     51  46  83 SW6       30.22R
MONTROSE       SUNNY     49  41  74 S3        30.27R
EAGLE          MOSUNNY   54  46  76 CALM      30.33R
RIFLE          SUNNY     48  39  71 CALM      30.27R
DELTA          MOSUNNY   53  42  65 CALM      30.25S
NUCLA          SUNNY     50  39  66 CALM      30.28R
$$

COZ017>023-064>068-291500-
...SOUTHWEST COLORADO...

CITY           SKY/WX    TMP DP  RH WIND       PRES   REMARKS
DURANGO        SUNNY     47  38  71 CALM      30.23R
CORTEZ         SUNNY     52  40  63 VRB3      30.22R
PAGOSA SPRINGS SUNNY     50  32  50 CALM      30.27S
TELLURIDE      SUNNY     41  33  72 CALM      30.35S
WOLF CREEK PAS NOT AVBL
$$

COZ009-010-012-014-032>034-037-058>063-291500-
...CENTRAL COLORADO...

CITY           SKY/WX    TMP DP  RH WIND       PRES   REMARKS
ASPEN          MOSUNNY   40  34  79 S3        30.31R
BUENA VISTA    SUNNY     44  32  62 CALM      30.29S
COPPER MTN     CLOUDY    34  28  80 W16G23    30.41S WCI  23
BERTHOUD PASS  HAZE      23  16  74 N7        30.42R VSB<1/4 WCI  15
COTTONWOOD PAS SUNNY     45  30  57 CALM      30.35R
GUNNISON       CLOUDY    41  34  75 CALM      30.35R
KREMMLING      CLOUDY    41  36  81 CALM      30.32S
LEADVILLE      CLOUDY    40  28  62 VRB3      30.34R
MONARCH PASS   FOG       28  28 100 MISG      30.51S VSB<1/4
SALIDA         SUNNY     46  35  65 NW5       30.36R
SUNLIGHT       SUNNY     36  30  80 CALM        N/A
WILKERSON PASS SUNNY     34  23  64 NW5       30.42R WCI  30
$$

COZ069>075-291500-
...SAN LUIS VALLEY/SANGRE DE CRISTO MOUNTAINS...

CITY           SKY/WX    TMP DP  RH WIND       PRES   REMARKS
ALAMOSA        SUNNY     47  34  60 CALM      30.28R
LA VETA PASS   SUNNY    N/A N/A N/A MISG      30.35S
SAGUACHE       SUNNY     45  36  70 NW17      30.30S
$$

COZ035-036-038>040-291500-
...NORTHERN COLORADO FRONT RANGE...

CITY           SKY/WX    TMP DP  RH WIND       PRES   REMARKS
DENVER INTL AP MOSUNNY   54  48  80 SW5       30.19S
DMNS CITY PARK   N/A     58  45  63 S2G54     30.20S
AURORA         MOSUNNY   51  46  82 SW3       30.22R
FRONT RANGE AP PTSUNNY   54  50  87 W5        30.20S
ERIE MUNI ARPT MOSUNNY   56  49  77 CALM      30.19S
BOULDER MUN AP MOSUNNY   55  46  71 CALM      30.19R
CENTENNIAL     MOSUNNY   53  45  74 N3        30.21R
BROOMFIELD     MOSUNNY   54  48  82 VRB3      30.22R
FORT COLLINS   MOSUNNY   55  46  71 SW5       30.20R
LONGMONT       MOSUNNY   59  48  67 CALM      30.21R
$$

COZ041-046-047-076>085-087-088-291500-
...PIKES PEAK/PALMER DIVIDE AND SOUTHERN FOOTHILLS...

CITY           SKY/WX    TMP DP  RH WIND       PRES   REMARKS
COLO. SPRINGS  MOSUNNY   57  43  59 N14       30.21R
A. F. ACADEMY  SUNNY     53  41  63 N10       30.21S
ELLICOTT       SUNNY    N/A N/A N/A N16       30.19R
FALCON         MOSUNNY   52  40  62 N54G104   30.24R
FORT CARSON    SUNNY     51  42  70 N10       30.18R
LIMON          SUNNY     55  47  74 NW13      30.18R
MONUMENT HILL  SUNNY     48  43  81 MISG      30.25R
TRINIDAD       SUNNY     56  47  71 W10       30.18R
$$

COZ042>045-048>051-090-091-291500-
...NORTHEAST COLORADO...

CITY           SKY/WX    TMP DP  RH WIND       PRES   REMARKS
GREELEY ARPT   CLOUDY    55  45  67 N9        30.19R
AKRON          PTSUNNY   52  49  89 NW13      30.15R
BURLINGTON     PTSUNNY   57  49  74 NW15      30.11R
WRAY           MOSUNNY   59  52  77 NW12      30.11S
STERLING       LGT RAIN  55  50  82 N14       30.13R
HOLYOKE        MOSUNNY   61  52  72 NW17      30.10S
FORT MORGAN    NOT AVBL
$$

COZ086-089-092>099-291500-
...SOUTHEAST COLORADO...

CITY           SKY/WX    TMP DP  RH WIND       PRES   REMARKS
PUEBLO         SUNNY     57  49  74 W3        30.15R
LA JUNTA       SUNNY     61  50  67 NW8       30.13R
LAMAR          MOSUNNY   61  52  72 NW8       30.08R
SPRINGFIELD      N/A     61  51  70 NW14      30.10R
$$



USA.gov is the U.S. government's official web portal to all federal, state and local government web resources and services.